Location: Clyde
(45.1830°S, 169.3170°E)
Time: 13:55:57
(UTC+12:00)

ISS - Visible Passes

Search period start: 17 May 2021 00:00
Search period end: 27 May 2021 00:00
Orbit: 417 x 422 km, 51.6° (Epoch: 16 May)

Date Brightness Start Highest point End Pass type
(mag) Time Alt. Az. Time Alt. Az. Time Alt. Az.
20 May -0.9 07:15:32 10° N 07:18:16 22° NE 07:21:01 10° E visible
21 May -0.6 06:29:06 10° NNE 06:30:59 14° NE 06:32:55 10° E visible
22 May -3.0 07:16:32 10° NW 07:19:55 56° NE 07:23:19 10° ESE visible
23 May -2.1 06:29:21 10° NNW 06:32:31 35° NE 06:35:43 10° ESE visible
24 May -1.5 05:44:15 20° NNE 05:45:10 22° NE 05:47:57 10° E visible
24 May -3.7 07:18:19 10° WNW 07:21:45 64° SSW 07:25:12 10° ESE visible
25 May -0.2 04:59:28 11° ENE 04:59:28 11° ENE 04:59:49 10° E visible
25 May -3.8 06:32:28 27° WNW 06:34:15 88° NNE 06:37:43 10° ESE visible
26 May -2.7 05:47:27 46° E 05:47:27 46° E 05:50:12 10° ESE visible
26 May -2.9 07:20:31 10° W 07:23:45 36° SSW 07:26:59 10° SE visible
